Starlink 31907

operational
NORAD ID: 59797 Int'l Des: 2024-093 Owner: SPXS Country: US Constellation: starlink
LEOCIRCULAR

About Starlink 31907

Description loading...

Live Position

Loading 3D Globe...

Upcoming Passes

Altitude History

Altitude vs Time

uPlot chart will show altitude changes over time

Two-Line Element Set

1 59797U 24093R 25307.74671774 -.00000499 00000-0 -86062-5 0 9996
2 59797 43.0005 200.1938 0000427 298.9306 61.1503 15.27582541 83438
Epoch: Nov 3, 2025 • Age: 11 hours

Current Status

Altitude 482.5 km
Velocity 7.63 km/s
Sub-Earth Point 21.14°N, 102.56°E
Launch Date May 18, 2024
Age 1.4 years
Type internet

Technical Details

Classification Payload
Mass 730.00 kg
Dry Mass 700.00 kg
Total Mass 730.00 kg
Length 0.30 m
Diameter 4.10 m
Span 29.00 m
Shape Box + pan
Manufacturer SPXS
Bus Type Starlink V2M
Phase Status In Orbit
Owner/State SPXS/US

Large Constellations

Loading constellations...